Вернуться в каталог

CZ-6A DEB

АктивенPO
NORAD 61323·DEBRIS·🇨🇳 China

Запущен Aug 6, 2024 с Taiyuan Satellite Launch Center

Loading…

Ближайшие Пролёты (ближайшие 24 часа)

TLE

СвежийSource: Space-Track

Эпоха: Sep 14, 2026, 10:18 UTC

1 61323U 24140UL  26257.42928686  .00004635  00000-0  88911-3 0  9991
2 61323  88.8437 244.4533 0072114 306.1760  53.2796 14.61934058107908

Отслеживайте CZ-6A DEB в реальном времени с AllMySat

Download on the App Store